Location: Kyle
(50.8323°N, 108.0393°W)
Time: 00:24:27
(UTC+00:00)

X-37B - Pass Details

Date: 07 February 2022
Orbit: 329 x 342 km, 45.0° (Epoch: 18 May)

Event Time Altitude Azimuth Distance (km) Brightness Sun altitude
Rises 01:23:42 0° 262° (W) 2,125 6.5 -11.5°
Reaches altitude 10° 01:26:18 10° 237° (WSW) 1,281 4.4 -11.9°
Maximum altitude 01:27:59 14° 201° (SSW) 1,057 3.2 -12.1°
Drops below altitude 10° 01:29:39 10° 165° (SSE) 1,275 3.1 -12.4°
Enters shadow 01:31:07 - 147° (SSE) 1,709 3.6 -12.6°
